Year,Month,Day,Hour,Minute,Value (Times are PST for temperature in C)
2018,07,15,00,00,21.70
2018,07,15,00,01,21.70
2018,07,15,00,02,21.80
2018,07,15,00,03,21.80
2018,07,15,00,04,21.80
2018,07,15,00,05,21.80
2018,07,15,00,06,21.90
2018,07,15,00,07,21.90
2018,07,15,00,08,21.90
2018,07,15,00,09,21.90
2018,07,15,00,10,21.90
2018,07,15,00,11,21.90
2018,07,15,00,12,21.90
2018,07,15,00,13,21.90
2018,07,15,00,14,21.90
2018,07,15,00,15,21.90
2018,07,15,00,16,21.90
2018,07,15,00,17,21.90
2018,07,15,00,18,21.90
2018,07,15,00,19,21.90
2018,07,15,00,20,21.90
2018,07,15,00,21,21.90
2018,07,15,00,22,22.00
2018,07,15,00,23,22.00
2018,07,15,00,24,22.00
2018,07,15,00,25,22.00
2018,07,15,00,26,22.00
2018,07,15,00,27,22.00
2018,07,15,00,28,22.00
2018,07,15,00,29,22.00
2018,07,15,00,30,22.00
2018,07,15,00,31,22.00
2018,07,15,00,32,22.00
2018,07,15,00,33,22.00
2018,07,15,00,34,22.00
2018,07,15,00,35,22.00
2018,07,15,00,36,22.00
2018,07,15,00,37,22.00
2018,07,15,00,38,22.00
2018,07,15,00,39,22.10
2018,07,15,00,40,22.10
2018,07,15,00,41,22.10
2018,07,15,00,42,22.10
2018,07,15,00,43,22.10
2018,07,15,00,44,22.10
2018,07,15,00,45,22.10
2018,07,15,00,46,22.10
2018,07,15,00,47,22.00
2018,07,15,00,48,22.00
2018,07,15,00,49,21.90
2018,07,15,00,50,21.80
2018,07,15,00,51,21.60
2018,07,15,00,52,21.60
2018,07,15,00,53,21.40
2018,07,15,00,54,21.30
2018,07,15,00,55,21.20
2018,07,15,00,56,21.00
2018,07,15,00,57,21.00
2018,07,15,00,58,20.80
2018,07,15,00,59,20.70
2018,07,15,01,00,20.60
2018,07,15,01,01,20.50
2018,07,15,01,02,20.40
2018,07,15,01,03,20.20
2018,07,15,01,04,20.10
2018,07,15,01,05,19.90
2018,07,15,01,06,19.80
2018,07,15,01,07,19.60
2018,07,15,01,08,19.50
2018,07,15,01,09,19.40
2018,07,15,01,10,19.30
2018,07,15,01,11,19.30
2018,07,15,01,12,19.30
2018,07,15,01,13,19.30
2018,07,15,01,14,19.40
2018,07,15,01,15,19.60
2018,07,15,01,16,19.70
2018,07,15,01,17,19.80
2018,07,15,01,18,19.90
2018,07,15,01,19,20.00
2018,07,15,01,20,20.10
2018,07,15,01,21,20.10
2018,07,15,01,22,20.20
2018,07,15,01,23,20.20
2018,07,15,01,24,20.20
2018,07,15,01,25,20.20
2018,07,15,01,26,20.20
2018,07,15,01,27,20.20
2018,07,15,01,28,20.20
2018,07,15,01,29,20.10
2018,07,15,01,30,20.10
2018,07,15,01,31,20.10
2018,07,15,01,32,20.10
2018,07,15,01,33,20.10
2018,07,15,01,34,20.00
2018,07,15,01,35,19.90
2018,07,15,01,36,19.90
2018,07,15,01,37,19.90
2018,07,15,01,38,19.90
2018,07,15,01,39,19.90
2018,07,15,01,40,19.90
2018,07,15,01,41,19.90
2018,07,15,01,42,19.90
2018,07,15,01,43,19.90
2018,07,15,01,44,19.80
2018,07,15,01,45,19.80
2018,07,15,01,46,19.80
2018,07,15,01,47,19.80
2018,07,15,01,48,19.80
2018,07,15,01,49,19.80
2018,07,15,01,50,19.80
2018,07,15,01,51,19.80
2018,07,15,01,52,19.80
2018,07,15,01,53,19.80
2018,07,15,01,54,19.80
2018,07,15,01,55,19.80
2018,07,15,01,56,19.80
2018,07,15,01,57,19.80
2018,07,15,01,58,19.80
2018,07,15,01,59,19.80
2018,07,15,02,00,19.70
2018,07,15,02,01,19.70
2018,07,15,02,02,19.70
2018,07,15,02,03,19.70
2018,07,15,02,04,19.70
2018,07,15,02,05,19.70
2018,07,15,02,06,19.70
2018,07,15,02,07,19.60
2018,07,15,02,08,19.60
2018,07,15,02,09,19.60
2018,07,15,02,10,19.60
2018,07,15,02,11,19.70
2018,07,15,02,12,19.70
2018,07,15,02,13,19.70
2018,07,15,02,14,19.70
2018,07,15,02,15,19.60
2018,07,15,02,16,19.60
2018,07,15,02,17,19.60
2018,07,15,02,18,19.60
2018,07,15,02,19,19.50
2018,07,15,02,20,19.50
2018,07,15,02,21,19.50
2018,07,15,02,22,19.50
2018,07,15,02,23,19.40
2018,07,15,02,24,19.40
2018,07,15,02,25,19.40
2018,07,15,02,26,19.40
2018,07,15,02,27,19.40
2018,07,15,02,28,19.40
2018,07,15,02,29,19.40
2018,07,15,02,30,19.40
2018,07,15,02,31,19.40
2018,07,15,02,32,19.40
2018,07,15,02,33,19.40
2018,07,15,02,34,19.40
2018,07,15,02,35,19.40
2018,07,15,02,36,19.30
2018,07,15,02,37,19.30
2018,07,15,02,38,19.30
2018,07,15,02,39,19.30
2018,07,15,02,40,19.30
2018,07,15,02,41,19.20
2018,07,15,02,42,19.20
2018,07,15,02,43,19.20
2018,07,15,02,44,19.20
2018,07,15,02,45,19.30
2018,07,15,02,46,19.30
2018,07,15,02,47,19.30
2018,07,15,02,48,19.30
2018,07,15,02,49,19.30
2018,07,15,02,50,19.30
2018,07,15,02,51,19.30
2018,07,15,02,52,19.30
2018,07,15,02,53,19.30
2018,07,15,02,54,19.40
2018,07,15,02,55,19.40
2018,07,15,02,56,19.40
2018,07,15,02,57,19.40
2018,07,15,02,58,19.40
2018,07,15,02,59,19.40
2018,07,15,03,00,19.40
2018,07,15,03,01,19.40
2018,07,15,03,02,19.40
2018,07,15,03,03,19.30
2018,07,15,03,04,19.30
2018,07,15,03,05,19.30
2018,07,15,03,06,19.30
2018,07,15,03,07,19.30
2018,07,15,03,08,19.30
2018,07,15,03,09,19.30
2018,07,15,03,10,19.30
2018,07,15,03,11,19.30
2018,07,15,03,12,19.20
2018,07,15,03,13,19.20
2018,07,15,03,14,19.20
2018,07,15,03,15,19.20
2018,07,15,03,16,19.20
2018,07,15,03,17,19.10
2018,07,15,03,18,19.10
2018,07,15,03,19,19.10
2018,07,15,03,20,19.10
2018,07,15,03,21,19.10
2018,07,15,03,22,19.10
2018,07,15,03,23,19.10
2018,07,15,03,24,19.10
2018,07,15,03,25,18.90
2018,07,15,03,26,18.90
2018,07,15,03,27,18.90
2018,07,15,03,28,18.90
2018,07,15,03,29,18.90
2018,07,15,03,30,18.90
2018,07,15,03,31,18.90
2018,07,15,03,32,18.90
2018,07,15,03,33,18.90
2018,07,15,03,34,18.90
2018,07,15,03,35,18.90
2018,07,15,03,36,18.90
2018,07,15,03,37,18.90
2018,07,15,03,38,18.90
2018,07,15,03,39,18.90
2018,07,15,03,40,18.90
2018,07,15,03,41,18.90
2018,07,15,03,42,18.80
2018,07,15,03,43,18.80
2018,07,15,03,44,18.80
2018,07,15,03,45,18.80
2018,07,15,03,46,18.80
2018,07,15,03,47,18.80
2018,07,15,03,48,18.80
2018,07,15,03,49,18.70
2018,07,15,03,50,18.70
2018,07,15,03,51,18.70
2018,07,15,03,52,18.70
2018,07,15,03,53,18.70
2018,07,15,03,54,18.70
2018,07,15,03,55,18.70
2018,07,15,03,56,18.60
2018,07,15,03,57,18.60
2018,07,15,03,58,18.60
2018,07,15,03,59,18.60
2018,07,15,04,00,18.60
2018,07,15,04,01,18.60
2018,07,15,04,02,18.50
2018,07,15,04,03,18.50
2018,07,15,04,04,18.50
2018,07,15,04,05,18.50
2018,07,15,04,06,18.50
2018,07,15,04,07,18.40
2018,07,15,04,08,18.40
2018,07,15,04,09,18.40
2018,07,15,04,10,18.40
2018,07,15,04,11,18.40
2018,07,15,04,12,18.30
2018,07,15,04,13,18.30
2018,07,15,04,14,18.40
2018,07,15,04,15,18.40
2018,07,15,04,16,18.40
2018,07,15,04,17,18.40
2018,07,15,04,18,18.40
2018,07,15,04,19,18.40
2018,07,15,04,20,18.40
2018,07,15,04,21,18.50
2018,07,15,04,22,18.50
2018,07,15,04,23,18.50
2018,07,15,04,24,18.50
2018,07,15,04,25,18.50
2018,07,15,04,26,18.40
2018,07,15,04,27,18.40
2018,07,15,04,28,18.40
2018,07,15,04,29,18.30
2018,07,15,04,30,18.30
2018,07,15,04,31,18.30
2018,07,15,04,32,18.20
2018,07,15,04,33,18.20
2018,07,15,04,34,18.20
2018,07,15,04,35,18.10
2018,07,15,04,36,18.00
2018,07,15,04,37,17.90
2018,07,15,04,38,17.90
2018,07,15,04,39,17.90
2018,07,15,04,40,17.80
2018,07,15,04,41,17.80
2018,07,15,04,42,17.80
2018,07,15,04,43,17.70
2018,07,15,04,44,17.70
2018,07,15,04,45,17.70
2018,07,15,04,46,17.70
2018,07,15,04,47,17.70
2018,07,15,04,48,17.70
2018,07,15,04,49,17.70
2018,07,15,04,50,17.70
2018,07,15,04,51,17.70
2018,07,15,04,52,17.70
2018,07,15,04,53,17.70
2018,07,15,04,54,17.80
2018,07,15,04,55,17.80
2018,07,15,04,56,17.80
2018,07,15,04,57,17.80
2018,07,15,04,58,17.80
2018,07,15,04,59,17.80
2018,07,15,05,00,17.80
2018,07,15,05,01,17.90
2018,07,15,05,02,17.90
2018,07,15,05,03,17.90
2018,07,15,05,04,17.90
2018,07,15,05,05,17.90
2018,07,15,05,06,17.90
2018,07,15,05,07,17.90
2018,07,15,05,08,17.90
2018,07,15,05,09,17.90
2018,07,15,05,10,17.90
2018,07,15,05,11,17.90
2018,07,15,05,12,17.90
2018,07,15,05,13,17.90
2018,07,15,05,14,17.90
2018,07,15,05,15,17.90
2018,07,15,05,16,17.90
2018,07,15,05,17,17.90
2018,07,15,05,18,17.90
2018,07,15,05,19,17.90
2018,07,15,05,20,17.90
2018,07,15,05,21,17.90
2018,07,15,05,22,17.90
2018,07,15,05,23,17.90
2018,07,15,05,24,17.80
2018,07,15,05,25,17.80
2018,07,15,05,26,17.70
2018,07,15,05,27,17.60
2018,07,15,05,28,17.50
2018,07,15,05,29,17.50
2018,07,15,05,30,17.40
2018,07,15,05,31,17.30
2018,07,15,05,32,17.30
2018,07,15,05,33,17.30
2018,07,15,05,34,17.20
2018,07,15,05,35,17.20
2018,07,15,05,36,17.20
2018,07,15,05,37,17.20
2018,07,15,05,38,17.20
2018,07,15,05,39,17.20
2018,07,15,05,40,17.10
2018,07,15,05,41,17.10
2018,07,15,05,42,17.10
2018,07,15,05,43,17.10
2018,07,15,05,44,17.10
2018,07,15,05,45,17.20
2018,07,15,05,46,17.20
2018,07,15,05,47,17.20
2018,07,15,05,48,17.20
2018,07,15,05,49,17.20
2018,07,15,05,50,17.20
2018,07,15,05,51,17.20
2018,07,15,05,52,17.20
2018,07,15,05,53,17.30
2018,07,15,05,54,17.30
2018,07,15,05,55,17.30
2018,07,15,05,56,17.30
2018,07,15,05,57,17.30
2018,07,15,05,58,17.30
2018,07,15,05,59,17.30
2018,07,15,06,00,17.30
2018,07,15,06,01,17.30
2018,07,15,06,02,17.30
2018,07,15,06,03,17.30
2018,07,15,06,04,17.30
2018,07,15,06,05,17.30
2018,07,15,06,06,17.30
2018,07,15,06,07,17.30
2018,07,15,06,08,17.30
2018,07,15,06,09,17.30
2018,07,15,06,10,17.30
2018,07,15,06,11,17.30
2018,07,15,06,12,17.30
2018,07,15,06,13,17.30
2018,07,15,06,14,17.40
2018,07,15,06,15,17.40
2018,07,15,06,16,17.50
2018,07,15,06,17,17.50
2018,07,15,06,18,17.60
2018,07,15,06,19,17.60
2018,07,15,06,20,17.60
2018,07,15,06,21,17.60
2018,07,15,06,22,17.60
2018,07,15,06,23,17.60
2018,07,15,06,24,17.60
2018,07,15,06,25,17.60
2018,07,15,06,26,17.60
2018,07,15,06,27,17.60
2018,07,15,06,28,17.60
2018,07,15,06,29,17.60
2018,07,15,06,30,17.50
2018,07,15,06,31,17.50
2018,07,15,06,32,17.40
2018,07,15,06,33,17.30
2018,07,15,06,34,17.30
2018,07,15,06,35,17.30
2018,07,15,06,36,17.20
2018,07,15,06,37,17.20
2018,07,15,06,38,17.10
2018,07,15,06,39,17.20
2018,07,15,06,40,17.20
2018,07,15,06,41,17.20
2018,07,15,06,42,17.20
2018,07,15,06,43,17.30
2018,07,15,06,44,17.30
2018,07,15,06,45,17.30
2018,07,15,06,46,17.30
2018,07,15,06,47,17.30
2018,07,15,06,48,17.40
2018,07,15,06,49,17.50
2018,07,15,06,50,17.60
2018,07,15,06,51,17.70
2018,07,15,06,52,17.80
2018,07,15,06,53,17.80
2018,07,15,06,54,17.90
2018,07,15,06,55,18.00
2018,07,15,06,56,18.10
2018,07,15,06,57,18.10
2018,07,15,06,58,18.20
2018,07,15,06,59,18.20
2018,07,15,07,00,18.20
2018,07,15,07,01,18.30
2018,07,15,07,02,18.30
2018,07,15,07,03,18.30
2018,07,15,07,04,18.40
2018,07,15,07,05,18.40
2018,07,15,07,06,18.50
2018,07,15,07,07,18.50
2018,07,15,07,08,18.60
2018,07,15,07,09,18.60
2018,07,15,07,10,18.70
2018,07,15,07,11,18.80
2018,07,15,07,12,18.80
2018,07,15,07,13,18.90
2018,07,15,07,14,18.90
2018,07,15,07,15,18.90
2018,07,15,07,16,19.00
2018,07,15,07,17,19.10
2018,07,15,07,18,19.10
2018,07,15,07,19,19.10
2018,07,15,07,20,19.10
2018,07,15,07,21,19.10
2018,07,15,07,22,19.10
2018,07,15,07,23,19.10
2018,07,15,07,24,19.10
2018,07,15,07,25,19.10
2018,07,15,07,26,19.20
2018,07,15,07,27,19.20
2018,07,15,07,28,19.20
2018,07,15,07,29,19.20
2018,07,15,07,30,19.20
2018,07,15,07,31,19.20
2018,07,15,07,32,19.20
2018,07,15,07,33,19.20
2018,07,15,07,34,19.20
2018,07,15,07,35,19.20
2018,07,15,07,36,19.20
2018,07,15,07,37,19.20
2018,07,15,07,38,19.20
2018,07,15,07,39,19.10
2018,07,15,07,40,19.10
2018,07,15,07,41,19.10
2018,07,15,07,42,19.20
2018,07,15,07,43,19.20
2018,07,15,07,44,19.20
2018,07,15,07,45,19.20
2018,07,15,07,46,19.20
2018,07,15,07,47,19.20
2018,07,15,07,48,19.20
2018,07,15,07,49,19.30
2018,07,15,07,50,19.30
2018,07,15,07,51,19.40
2018,07,15,07,52,19.40
2018,07,15,07,53,19.40
2018,07,15,07,54,19.50
2018,07,15,07,55,19.50
2018,07,15,07,56,19.60
2018,07,15,07,57,19.60
2018,07,15,07,58,19.70
2018,07,15,07,59,19.70
2018,07,15,08,00,19.80
2018,07,15,08,01,19.90
2018,07,15,08,02,19.90
2018,07,15,08,03,19.90
2018,07,15,08,04,19.90
2018,07,15,08,05,19.90
2018,07,15,08,06,19.90
2018,07,15,08,07,19.90
2018,07,15,08,08,19.90
2018,07,15,08,09,19.90
2018,07,15,08,10,19.90
2018,07,15,08,11,19.90
2018,07,15,08,12,19.90
2018,07,15,08,13,19.90
2018,07,15,08,14,19.90
2018,07,15,08,15,20.00
2018,07,15,08,16,20.10
2018,07,15,08,17,20.10
2018,07,15,08,18,20.10
2018,07,15,08,19,20.20
2018,07,15,08,20,20.20
2018,07,15,08,21,20.30
2018,07,15,08,22,20.40
2018,07,15,08,23,20.50
2018,07,15,08,24,20.50
2018,07,15,08,25,20.60
2018,07,15,08,26,20.60
2018,07,15,08,27,20.70
2018,07,15,08,28,20.80
2018,07,15,08,29,20.90
2018,07,15,08,30,21.00
2018,07,15,08,31,21.00
2018,07,15,08,32,21.00
2018,07,15,08,33,21.00
2018,07,15,08,34,21.00
2018,07,15,08,35,21.00
2018,07,15,08,36,21.00
2018,07,15,08,37,21.00
2018,07,15,08,38,20.90
2018,07,15,08,39,20.90
2018,07,15,08,40,20.90
2018,07,15,08,41,20.90
2018,07,15,08,42,20.90
2018,07,15,08,43,21.00
2018,07,15,08,44,21.00
2018,07,15,08,45,21.00
2018,07,15,08,46,21.00
2018,07,15,08,47,21.00
2018,07,15,08,48,21.10
2018,07,15,08,49,21.10
2018,07,15,08,50,21.10
2018,07,15,08,51,21.10
2018,07,15,08,52,21.10
2018,07,15,08,53,21.00
2018,07,15,08,54,21.00
2018,07,15,08,55,21.00
2018,07,15,08,56,20.90
2018,07,15,08,57,20.80
2018,07,15,08,58,20.80
2018,07,15,08,59,20.80
2018,07,15,09,00,20.70
2018,07,15,09,01,20.70
2018,07,15,09,02,20.70
2018,07,15,09,03,20.80
2018,07,15,09,04,20.80
2018,07,15,09,05,20.90
2018,07,15,09,06,21.00
2018,07,15,09,07,21.00
2018,07,15,09,08,21.10
2018,07,15,09,09,21.20
2018,07,15,09,10,21.30
2018,07,15,09,11,21.30
2018,07,15,09,12,21.30
2018,07,15,09,13,21.30
2018,07,15,09,14,21.40
2018,07,15,09,15,21.60
2018,07,15,09,16,21.60
2018,07,15,09,17,21.70
2018,07,15,09,18,21.70
2018,07,15,09,19,21.80
2018,07,15,09,20,21.70
2018,07,15,09,21,21.80
2018,07,15,09,22,21.80
2018,07,15,09,23,21.80
2018,07,15,09,24,21.90
2018,07,15,09,25,22.00
2018,07,15,09,26,22.00
2018,07,15,09,27,22.10
2018,07,15,09,28,22.10
2018,07,15,09,29,22.10
2018,07,15,09,30,22.10
2018,07,15,09,31,22.10
2018,07,15,09,32,22.10
2018,07,15,09,33,22.10
2018,07,15,09,34,22.10
2018,07,15,09,35,22.10
2018,07,15,09,36,22.20
2018,07,15,09,37,22.30
2018,07,15,09,38,22.40
2018,07,15,09,39,22.40
2018,07,15,09,40,22.40
2018,07,15,09,41,22.40
2018,07,15,09,42,22.30
2018,07,15,09,43,22.20
2018,07,15,09,44,22.10
2018,07,15,09,45,22.10
2018,07,15,09,46,22.00
2018,07,15,09,47,22.00
2018,07,15,09,48,22.00
2018,07,15,09,49,22.00
2018,07,15,09,50,22.00
2018,07,15,09,51,22.00
2018,07,15,09,52,22.00
2018,07,15,09,53,22.00
2018,07,15,09,54,21.90
2018,07,15,09,55,21.90
2018,07,15,09,56,21.80
2018,07,15,09,57,21.80
2018,07,15,09,58,21.80
2018,07,15,09,59,21.80
2018,07,15,10,00,21.80
2018,07,15,10,01,21.80
2018,07,15,10,02,21.90
2018,07,15,10,03,22.00
2018,07,15,10,04,22.00
2018,07,15,10,05,22.10
2018,07,15,10,06,22.20
2018,07,15,10,07,22.20
2018,07,15,10,08,22.20
2018,07,15,10,09,22.30
2018,07,15,10,10,22.30
2018,07,15,10,11,22.20
2018,07,15,10,12,22.10
2018,07,15,10,13,22.20
2018,07,15,10,14,22.20
2018,07,15,10,15,22.10
2018,07,15,10,16,22.10
2018,07,15,10,17,22.20
2018,07,15,10,18,22.30
2018,07,15,10,19,22.30
2018,07,15,10,20,22.30
2018,07,15,10,21,22.20
2018,07,15,10,22,22.10
2018,07,15,10,23,22.00
2018,07,15,10,24,21.90
2018,07,15,10,25,21.80
2018,07,15,10,26,21.70
2018,07,15,10,27,21.70
2018,07,15,10,28,21.70
2018,07,15,10,29,21.70
2018,07,15,10,30,21.70
2018,07,15,10,31,21.70
2018,07,15,10,32,21.70
2018,07,15,10,33,21.80
2018,07,15,10,34,21.80
2018,07,15,10,35,21.80
2018,07,15,10,36,21.80
2018,07,15,10,37,21.70
2018,07,15,10,38,21.80
2018,07,15,10,39,21.80
2018,07,15,10,40,21.90
2018,07,15,10,41,22.00
2018,07,15,10,42,22.00
2018,07,15,10,43,21.90
2018,07,15,10,44,21.90
2018,07,15,10,45,22.00
2018,07,15,10,46,22.00
2018,07,15,10,47,22.00
2018,07,15,10,48,22.00
2018,07,15,10,49,22.10
2018,07,15,10,50,22.10
2018,07,15,10,51,22.20
2018,07,15,10,52,22.30
2018,07,15,10,53,22.40
2018,07,15,10,54,22.50
2018,07,15,10,55,22.50
2018,07,15,10,56,22.50
2018,07,15,10,57,22.60
2018,07,15,10,58,22.60
2018,07,15,10,59,22.70
2018,07,15,11,00,22.80
2018,07,15,11,01,22.90
2018,07,15,11,02,22.90
2018,07,15,11,03,23.00
2018,07,15,11,04,23.10
2018,07,15,11,05,23.10
2018,07,15,11,06,23.20
2018,07,15,11,07,23.20
2018,07,15,11,08,23.30
2018,07,15,11,09,23.30
2018,07,15,11,10,23.30
2018,07,15,11,11,23.30
2018,07,15,11,12,23.30
2018,07,15,11,13,23.40
2018,07,15,11,14,23.40
2018,07,15,11,15,23.40
2018,07,15,11,16,23.30
2018,07,15,11,17,23.30
2018,07,15,11,18,23.20
2018,07,15,11,19,23.10
2018,07,15,11,20,23.10
2018,07,15,11,21,23.10
2018,07,15,11,22,23.20
2018,07,15,11,23,23.20
2018,07,15,11,24,23.30
2018,07,15,11,25,23.40
2018,07,15,11,26,23.50
2018,07,15,11,27,23.70
2018,07,15,11,28,23.80
2018,07,15,11,29,23.90
2018,07,15,11,30,23.90
2018,07,15,11,31,23.90
2018,07,15,11,32,23.90
2018,07,15,11,33,23.90
2018,07,15,11,34,23.90
2018,07,15,11,35,23.90
2018,07,15,11,36,23.90
2018,07,15,11,37,23.90
2018,07,15,11,38,23.80
2018,07,15,11,39,23.80
2018,07,15,11,40,23.70
2018,07,15,11,41,23.80
2018,07,15,11,42,23.80
2018,07,15,11,43,23.80
2018,07,15,11,44,23.90
2018,07,15,11,45,23.90
2018,07,15,11,46,24.00
2018,07,15,11,47,24.10
2018,07,15,11,48,24.10
2018,07,15,11,49,24.10
2018,07,15,11,50,24.10
2018,07,15,11,51,24.20
2018,07,15,11,52,24.30
2018,07,15,11,53,24.30
2018,07,15,11,54,24.30
2018,07,15,11,55,24.20
2018,07,15,11,56,24.20
2018,07,15,11,57,24.20
2018,07,15,11,58,24.10
2018,07,15,11,59,24.10
2018,07,15,12,00,24.10
2018,07,15,12,01,24.10
2018,07,15,12,02,24.10
2018,07,15,12,03,24.20
2018,07,15,12,04,24.20
2018,07,15,12,05,24.10
2018,07,15,12,06,24.10
2018,07,15,12,07,24.00
2018,07,15,12,08,24.00
2018,07,15,12,09,24.10
2018,07,15,12,10,24.10
2018,07,15,12,11,24.10
2018,07,15,12,12,24.10
2018,07,15,12,13,24.10
2018,07,15,12,14,24.10
2018,07,15,12,15,24.10
2018,07,15,12,16,24.00
2018,07,15,12,17,23.90
2018,07,15,12,18,23.70
2018,07,15,12,19,23.70
2018,07,15,12,20,23.70
2018,07,15,12,21,23.70
2018,07,15,12,22,23.70
2018,07,15,12,23,23.60
2018,07,15,12,24,23.60
2018,07,15,12,25,23.50
2018,07,15,12,26,23.40
2018,07,15,12,27,23.40
2018,07,15,12,28,23.40
2018,07,15,12,29,23.50
2018,07,15,12,30,23.60
2018,07,15,12,31,23.60
2018,07,15,12,32,23.60
2018,07,15,12,33,23.70
2018,07,15,12,34,23.70
2018,07,15,12,35,23.70
2018,07,15,12,36,23.80
2018,07,15,12,37,23.90
2018,07,15,12,38,24.00
2018,07,15,12,39,24.10
2018,07,15,12,40,24.20
2018,07,15,12,41,24.30
2018,07,15,12,42,24.40
2018,07,15,12,43,24.40
2018,07,15,12,44,24.40
2018,07,15,12,45,24.40
2018,07,15,12,46,24.40
2018,07,15,12,47,24.30
2018,07,15,12,48,24.30
2018,07,15,12,49,24.30
2018,07,15,12,50,24.40
2018,07,15,12,51,24.40
2018,07,15,12,52,24.40
2018,07,15,12,53,24.30
2018,07,15,12,54,24.30
2018,07,15,12,55,24.30
2018,07,15,12,56,24.30
2018,07,15,12,57,24.30
2018,07,15,12,58,24.30
2018,07,15,12,59,24.30
2018,07,15,13,00,24.40
2018,07,15,13,01,24.50
2018,07,15,13,02,24.50
2018,07,15,13,03,24.50
2018,07,15,13,04,24.50
2018,07,15,13,05,24.50
2018,07,15,13,06,24.40
2018,07,15,13,07,24.40
2018,07,15,13,08,24.50
2018,07,15,13,09,24.60
2018,07,15,13,10,24.60
2018,07,15,13,11,24.70
2018,07,15,13,12,24.70
2018,07,15,13,13,24.60
2018,07,15,13,14,24.60
2018,07,15,13,15,24.60
2018,07,15,13,16,24.70
2018,07,15,13,17,24.80
2018,07,15,13,18,24.70
2018,07,15,13,19,24.70
2018,07,15,13,20,24.70
2018,07,15,13,21,24.80
2018,07,15,13,22,24.80
2018,07,15,13,23,24.80
2018,07,15,13,24,24.90
2018,07,15,13,25,24.90
2018,07,15,13,26,25.00
2018,07,15,13,27,25.10
2018,07,15,13,28,25.10
2018,07,15,13,29,25.20
2018,07,15,13,30,25.20
2018,07,15,13,31,25.20
2018,07,15,13,32,25.20
2018,07,15,13,33,25.30
2018,07,15,13,34,25.30
2018,07,15,13,35,25.40
2018,07,15,13,36,25.40
2018,07,15,13,37,25.50
2018,07,15,13,38,25.60
2018,07,15,13,39,25.60
2018,07,15,13,40,25.60
2018,07,15,13,41,25.50
2018,07,15,13,42,25.40
2018,07,15,13,43,25.40
2018,07,15,13,44,25.40
2018,07,15,13,45,25.40
2018,07,15,13,46,25.40
2018,07,15,13,47,25.40
2018,07,15,13,48,25.50
2018,07,15,13,49,25.50
2018,07,15,13,50,25.50
2018,07,15,13,51,25.60
2018,07,15,13,52,25.70
2018,07,15,13,53,25.70
2018,07,15,13,54,25.70
2018,07,15,13,55,25.80
2018,07,15,13,56,25.80
2018,07,15,13,57,25.80
2018,07,15,13,58,25.70
2018,07,15,13,59,25.70
2018,07,15,14,00,25.70
2018,07,15,14,01,25.70
2018,07,15,14,02,25.60
2018,07,15,14,03,25.60
2018,07,15,14,04,25.60
2018,07,15,14,05,25.60
2018,07,15,14,06,25.60
2018,07,15,14,07,25.70
2018,07,15,14,08,25.70
2018,07,15,14,09,25.80
2018,07,15,14,10,25.90
2018,07,15,14,11,25.90
2018,07,15,14,12,26.00
2018,07,15,14,13,26.10
2018,07,15,14,14,26.10
2018,07,15,14,15,26.20
2018,07,15,14,16,26.20
2018,07,15,14,17,26.30
2018,07,15,14,18,26.30
2018,07,15,14,19,26.30
2018,07,15,14,20,26.20
2018,07,15,14,21,26.20
2018,07,15,14,22,26.10
2018,07,15,14,23,26.10
2018,07,15,14,24,26.00
2018,07,15,14,25,25.90
2018,07,15,14,26,25.90
2018,07,15,14,27,25.90
2018,07,15,14,28,25.90
2018,07,15,14,29,26.00
2018,07,15,14,30,26.10
2018,07,15,14,31,26.30
2018,07,15,14,32,26.40
2018,07,15,14,33,26.50
2018,07,15,14,34,26.60
2018,07,15,14,35,26.60
2018,07,15,14,36,26.60
2018,07,15,14,37,26.60
2018,07,15,14,38,26.70
2018,07,15,14,39,26.70
2018,07,15,14,40,26.80
2018,07,15,14,41,26.80
2018,07,15,14,42,26.90
2018,07,15,14,43,27.00
2018,07,15,14,44,27.10
2018,07,15,14,45,27.10
2018,07,15,14,46,27.10
2018,07,15,14,47,27.10
2018,07,15,14,48,27.10
2018,07,15,14,49,27.00
2018,07,15,14,50,26.90
2018,07,15,14,51,26.80
2018,07,15,14,52,26.80
2018,07,15,14,53,26.80
2018,07,15,14,54,26.80
2018,07,15,14,55,26.80
2018,07,15,14,56,26.80
2018,07,15,14,57,26.80
2018,07,15,14,58,26.80
2018,07,15,14,59,26.80
2018,07,15,15,00,26.80
2018,07,15,15,01,26.70
2018,07,15,15,02,26.60
2018,07,15,15,03,26.50
2018,07,15,15,04,26.40
2018,07,15,15,05,26.40
2018,07,15,15,06,26.50
2018,07,15,15,07,26.60
2018,07,15,15,08,26.60
2018,07,15,15,09,26.60
2018,07,15,15,10,26.70
2018,07,15,15,11,26.70
2018,07,15,15,12,26.80
2018,07,15,15,13,26.80
2018,07,15,15,14,26.80
2018,07,15,15,15,26.80
2018,07,15,15,16,26.80
2018,07,15,15,17,26.80
2018,07,15,15,18,26.70
2018,07,15,15,19,26.70
2018,07,15,15,20,26.70
2018,07,15,15,21,26.60
2018,07,15,15,22,26.60
2018,07,15,15,23,26.60
2018,07,15,15,24,26.60
2018,07,15,15,25,26.60
2018,07,15,15,26,26.60
2018,07,15,15,27,26.60
2018,07,15,15,28,26.60
2018,07,15,15,29,26.70
2018,07,15,15,30,26.90
2018,07,15,15,31,27.00
2018,07,15,15,32,27.20
2018,07,15,15,33,27.30
2018,07,15,15,34,27.40
2018,07,15,15,35,27.60
2018,07,15,15,36,27.70
2018,07,15,15,37,27.90
2018,07,15,15,38,28.00
2018,07,15,15,39,27.90
2018,07,15,15,40,27.70
2018,07,15,15,41,27.60
2018,07,15,15,42,27.60
2018,07,15,15,43,27.60
2018,07,15,15,44,27.60
2018,07,15,15,45,27.60
2018,07,15,15,46,27.50
2018,07,15,15,47,27.40
2018,07,15,15,48,27.40
2018,07,15,15,49,27.30
2018,07,15,15,50,27.30
2018,07,15,15,51,27.20
2018,07,15,15,52,27.20
2018,07,15,15,53,27.10
2018,07,15,15,54,27.10
2018,07,15,15,55,27.10
2018,07,15,15,56,27.10
2018,07,15,15,57,27.00
2018,07,15,15,58,26.90
2018,07,15,15,59,26.90
2018,07,15,16,00,26.90
2018,07,15,16,01,27.00
2018,07,15,16,02,27.10
2018,07,15,16,03,27.20
2018,07,15,16,04,27.20
2018,07,15,16,05,27.20
2018,07,15,16,06,27.20
2018,07,15,16,07,27.20
2018,07,15,16,08,27.20
2018,07,15,16,09,27.30
2018,07,15,16,10,27.30
2018,07,15,16,11,27.30
2018,07,15,16,12,27.30
2018,07,15,16,13,27.30
2018,07,15,16,14,27.50
2018,07,15,16,15,27.60
2018,07,15,16,16,27.70
2018,07,15,16,17,27.80
2018,07,15,16,18,27.90
2018,07,15,16,19,28.00
2018,07,15,16,20,28.00
2018,07,15,16,21,28.10
2018,07,15,16,22,28.10
2018,07,15,16,23,28.20
2018,07,15,16,24,28.20
2018,07,15,16,25,28.30
2018,07,15,16,26,28.30
2018,07,15,16,27,28.30
2018,07,15,16,28,28.40
2018,07,15,16,29,28.40
2018,07,15,16,30,28.50
2018,07,15,16,31,28.60
2018,07,15,16,32,28.70
2018,07,15,16,33,28.80
2018,07,15,16,34,28.80
2018,07,15,16,35,28.80
2018,07,15,16,36,28.80
2018,07,15,16,37,28.80
2018,07,15,16,38,28.80
2018,07,15,16,39,28.70
2018,07,15,16,40,28.60
2018,07,15,16,41,28.50
2018,07,15,16,42,28.40
2018,07,15,16,43,28.30
2018,07,15,16,44,28.20
2018,07,15,16,45,28.20
2018,07,15,16,46,28.10
2018,07,15,16,47,28.10
2018,07,15,16,48,28.10
2018,07,15,16,49,28.10
2018,07,15,16,50,28.10
2018,07,15,16,51,28.10
2018,07,15,16,52,28.00
2018,07,15,16,53,27.90
2018,07,15,16,54,27.90
2018,07,15,16,55,27.80
2018,07,15,16,56,27.80
2018,07,15,16,57,27.80
2018,07,15,16,58,27.90
2018,07,15,16,59,28.00
2018,07,15,17,00,28.10
2018,07,15,17,01,28.30
2018,07,15,17,02,28.40
2018,07,15,17,03,28.50
2018,07,15,17,04,28.60
2018,07,15,17,05,28.70
2018,07,15,17,06,28.90
2018,07,15,17,07,28.90
2018,07,15,17,08,28.90
2018,07,15,17,09,28.80
2018,07,15,17,10,28.80
2018,07,15,17,11,28.80
2018,07,15,17,12,28.80
2018,07,15,17,13,28.80
2018,07,15,17,14,28.70
2018,07,15,17,15,28.70
2018,07,15,17,16,28.70
2018,07,15,17,17,28.70
2018,07,15,17,18,28.70
2018,07,15,17,19,28.70